COSMOS 2251 DEB, 34971

Orbit data source: Space-Track

COSMOS 2251 DEB, 34971 is space debris in LEO originally from a launch on Wed, 16 Jun 1993 UTC launched from the Plesetsk Missile And Space Complex (PKMTR). The debris from Iridium 33, an American commercial communications satellite, has been tracked extensively since its accidental collision with the defunct Russian satellite Cosmos 2251 in 2009. This event, occurring at high speed in low Earth orbit (LEO), generated thousands of pieces of space debris, significantly increasing the risk of further collisions. The Iridium 33 debris cloud has impacted space traffic management and orbital debris mitigation strategies, making it a subject of ongoing study in space situational awareness.

Loading next visibility...
Identifier
34971, 1993-036AFA
Orbit
LEO
Country
Flag of CISCIS
Related business
Manufacturer
Unknown
Mission
Spacecraft
Bus & Motor
Unknown
Mass
Unknown
Launch date (UTC)
1993-06-16 (33 years ago)
Launch vehicle
Unknown
Launch site
Plesetsk Missile And Space Complex (PKMTR)
Object type
Payload
Rocket body
Debris
Shape & HBR
Unknown shape, 0.1 m
Radar Cross Section
Small (<0.1 m²)

Expand to show TLE details & history
Last TLE update: 1 day ago

TLE from 1 day ago
0 COSMOS 2251 DEB
1 34971U 93036AFA 26206.40816066  .00000687  00000-0  15805-3 0  9995
2 34971  73.9762 217.6306 0069239  28.0114  38.4670 14.55977467694428
Epoch: 2026-07-25T09:47Z
TLE epoch observation values (Epoch: 2026-07-25T09:47:45.081Z)
Latitude
62.30429°
Longitude
160.53999°
Altitude
678.24 km
Speed
7.544 km/s
True Right ascension
16h 42m 23s
True Declination
62° 09' 39"
Sunlit
Object was in daylight at epoch
Visualization orbit readout
Latitude
Unknown
Longitude
Unknown
Altitude
Unknown
Speed
Unknown
Apparent Right ascension
Unknown
Apparent Declination
Unknown
Sunlit
N/A
Visualization observer readout
Local Sidereal Time
05:16:14
Azimuth
Unknown
Elevation
Unknown
Doppler factor
Unknown
Orbital elements
Apogee altitude
752.834 km
Perigee altitude
654.765 km
Semi-major axis
7,081.936 km
Eccentricity
0.00692
Inclination
73.9762°
RAAN
217.6306°
Arg. of periapsis
28.0114°
True anomaly
38.96392°
Mean anomaly
38.467°
Eccentric anomaly
38.71512°
Mean motion
3.64179 °/min
Orbital period
98.85 mins
BSTAR
0.00015805

Documentation

Showing up to 5 results
|